Tracking 29892 objects as of 21-Nov-2024
HD Live streaming from Space Station
objects crossing your sky now

OPS 9442 (DSCS 2-12) DEB

Track OPS 9442 (DSCS 2-12) DEB now!


NORAD ID: 59992
Int'l Code: 1978-113H
Perigee: 35,548.4 km
Apogee: 37,141.7 km
Inclination: 9.6 °
Period: 1,464.4 minutes
Semi major axis: 42715 km
RCS: Unknown
Launch date: December 14, 1978
Source: United States (US)
Launch site: AIR FORCE EASTERN TEST RANGE (AFETR)

Note: This is SATELLITE DEBRIS
Your satellite tracking list
Your tracking list is empty




NASA's NSSDC Master Catalog

Two Line Element Set (TLE):
1 59992U 78113H   24324.28643406 -.00000299  00000-0  00000-0 0  9993
2 59992   9.6192 307.3597 0186501  83.9567  87.0770  0.98336998 53233
Source of the keplerian elements: AFSPC